WX4SKY Weather Reports


Display with metric or nautical units.
time (UTC)temp
F
wind
direction
speed
MPH
gust
MPH
rain 1hr
in
rain 24hr
in
rain mn
in
humidity
%
barometer
mb
20260901104605 68 0 0.0 0.0 0.00 0.00 0.00 95 1021.0
20260901103104 69 0 0.0 0.0 0.00 0.00 0.00 95 1021.0
20260901101612 69 0 0.0 0.0 0.00 0.00 0.00 95 1020.9
20260901100110 69 0 0.0 0.0 0.00 0.00 0.00 95 1020.8
20260901094602 69 0 0.0 0.0 0.00 0.00 0.00 95 1020.7
20260901093102 69 0 0.0 0.0 0.00 0.00 0.00 95 1020.6
20260901091608 69 0 0.0 0.0 0.00 0.00 0.00 95 1020.5
20260901090105 69 0 0.0 0.0 0.00 0.00 0.00 94 1020.4
20260901084626 69 0 0.0 0.0 0.00 0.00 0.00 94 1020.5
20260901083100 69 0 0.0 0.0 0.00 0.00 0.00 94 1020.5
20260901081557 69 0 0.0 0.0 0.00 0.00 0.00 94 1020.5
20260901080115 69 0 0.0 0.0 0.00 0.00 0.00 94 1020.3
20260901074633 70 0 0.0 0.0 0.00 0.00 0.00 94 1020.3
20260901073105 70 0 0.0 0.0 0.00 0.00 0.00 94 1020.3
20260901071608 70 0 0.0 0.0 0.00 0.00 0.00 94 1020.2
20260901070108 70 0 0.0 0.0 0.00 0.00 0.00 94 1020.3
20260901064603 70 0 0.0 0.0 0.00 0.00 0.00 94 1020.5
20260901063104 70 0 0.0 0.0 0.00 0.00 0.00 93 1020.6
20260901061610 71 0 0.0 0.0 0.00 0.00 0.00 93 1020.7
20260901060100 71 0 0.0 0.0 0.00 0.00 0.00 93 1020.8
20260901054605 71 0 0.0 0.0 0.00 0.00 0.00 93 1020.8
20260901053106 71 0 0.0 0.0 0.00 0.00 0.00 93 1020.9
20260901051610 72 0 0.0 0.0 0.00 0.00 0.00 93 1020.9
20260901050108 72 0 0.0 0.0 0.00 0.00 0.00 93 1021.1
20260901044607 72 0 0.0 0.0 0.00 0.00 0.00 93 1021.1
20260901043059 72 0 0.0 0.0 0.00 0.00 0.00 93 1021.0
20260901041622 72 0 0.0 0.0 0.00 0.00 0.00 92 1020.9
20260901040138 72 0 0.0 0.0 0.00 0.00 0.00 92 1020.9
20260901034606 72 0 0.0 0.0 0.00 0.00 0.00 91 1021.0
20260901033105 72 0 0.0 0.0 0.00 0.00 0.00 91 1021.0
20260901031600 73 0 0.0 0.0 0.00 0.00 0.00 91 1021.1
20260901030110 73 0 0.0 0.0 0.00 0.00 0.00 90 1021.1
20260901024607 73 0 0.0 0.0 0.00 0.00 0.00 90 1020.9
20260901023107 74 0 0.0 0.0 0.00 0.00 0.00 90 1020.9
20260901021609 74 0 0.0 0.0 0.00 0.00 0.00 89 1020.8
20260901020111 74 0 0.0 0.0 0.00 0.00 0.00 89 1020.8
20260901014602 75 0 0.0 0.0 0.00 0.00 0.00 88 1020.6
20260901013105 75 0 0.0 0.0 0.00 0.00 0.00 87 1020.4
20260901011608 76 0 0.0 0.0 0.00 0.00 0.00 86 1020.2
20260901010116 77 0 0.0 0.0 0.00 0.00 0.00 84 1020.0
20260901004607 77 0 0.0 0.0 0.00 0.00 0.00 81 1019.7
20260901003107 78 0 0.0 0.0 0.00 0.00 0.00 80 1019.8
20260901001605 79 0 0.0 0.0 0.00 0.00 0.00 77 1019.6
20260901000113 81 0 0.0 0.0 0.00 0.00 0.00 75 1019.6
20260831234604 82 0 0.0 0.0 0.00 0.00 0.00 72 1019.6
20260831233123 83 0 0.0 0.0 0.00 0.00 0.00 68 1019.7
20260831231602 85 0 0.0 0.0 0.00 0.00 0.00 66 1019.7
20260831230114 86 0 0.0 0.0 0.00 0.00 0.00 62 1019.7
20260831224602 88 0 0.0 1.0 0.00 0.00 0.00 61 1019.7
20260831223109 90 0 0.0 1.0 0.00 0.00 0.00 57 1019.7
20260831221603 91 0 0.0 2.0 0.00 0.00 0.00 52 1019.7
20260831220103 92 0 0.0 1.0 0.00 0.00 0.00 56 1019.8
20260831214611 92 0 0.0 1.0 0.00 0.00 0.00 54 1019.8
20260831213109 91 86 0.0 2.0 0.00 0.00 0.00 57 1020.1
20260831211607 90 0 0.0 3.0 0.00 0.00 0.00 57 1019.9
20260831210107 89 0 0.0 3.0 0.00 0.00 0.00 59 1020.2
20260831204609 94 108 0.0 3.0 0.00 0.00 0.00 52 1020.4
20260831203115 92 93 1.0 2.0 0.00 0.00 0.00 56 1020.5
20260831201604 92 115 1.0 2.0 0.00 0.00 0.00 53 1020.3
20260831200110 91 0 0.0 1.0 0.00 0.00 0.00 59 1020.6
20260831194640 91 0 1.0 3.0 0.00 0.00 0.00 57 1020.8
20260831193106 93 110 0.0 2.0 0.00 0.00 0.00 54 1020.8
20260831191607 92 64 0.0 3.0 0.00 0.00 0.00 57 1021.1
20260831190110 91 143 1.0 3.0 0.00 0.00 0.00 57 1021.3
20260831184607 91 136 0.0 2.0 0.00 0.00 0.00 61 1021.5
20260831183113 89 0 0.0 1.0 0.00 0.00 0.00 63 1021.8
20260831181610 88 129 0.0 4.0 0.00 0.00 0.00 64 1021.7
20260831180121 90 87 1.0 4.0 0.00 0.00 0.00 60 1021.9
20260831174607 89 0 0.0 2.0 0.00 0.00 0.00 67 1022.1
20260831173104 89 128 0.0 3.0 0.00 0.00 0.00 63 1022.4
20260831171606 87 103 0.0 2.0 0.00 0.00 0.00 69 1022.6
20260831170107 86 0 0.0 1.0 0.00 0.00 0.00 68 1022.6
20260831164605 84 0 0.0 1.0 0.00 0.00 0.00 77 1022.7
20260831163104 85 0 0.0 4.0 0.00 0.00 0.00 72 1022.7
20260831161606 85 0 0.0 2.0 0.00 0.00 0.00 73 1022.9
20260831160105 83 91 0.0 3.0 0.00 0.00 0.00 80 1023.1
20260831154633 83 58 0.0 3.0 0.00 0.00 0.00 78 1023.2
20260831153106 81 0 0.0 0.0 0.00 0.00 0.00 85 1023.2
20260831151617 81 0 0.0 0.0 0.00 0.00 0.00 84 1023.2
20260831150109 81 0 0.0 0.0 0.00 0.00 0.00 82 1023.1
20260831144607 81 0 0.0 1.0 0.00 0.00 0.00 83 1022.9
20260831143103 79 62 0.0 2.0 0.00 0.00 0.00 85 1022.8
20260831141606 78 92 0.0 3.0 0.00 0.00 0.00 88 1022.9
20260831140106 77 128 0.0 1.0 0.00 0.00 0.00 89 1022.8
20260831134606 76 0 0.0 1.0 0.00 0.00 0.00 93 1022.9
20260831133107 74 0 0.0 0.0 0.00 0.00 0.00 96 1023.0
20260831131614 73 0 0.0 0.0 0.00 0.00 0.00 96 1023.0
20260831130114 72 0 0.0 0.0 0.00 0.00 0.00 96 1023.0
20260831124610 71 0 0.0 0.0 0.00 0.00 0.00 96 1022.8
20260831123105 70 0 0.0 0.0 0.00 0.00 0.00 96 1022.8
20260831121604 70 0 0.0 0.0 0.00 0.00 0.00 96 1022.7
20260831120104 70 0 0.0 0.0 0.00 0.00 0.00 95 1022.6
20260831114605 69 0 0.0 0.0 0.00 0.00 0.00 95 1022.4
20260831113107 69 0 0.0 0.0 0.00 0.00 0.00 95 1022.2
20260831111606 69 0 0.0 0.0 0.00 0.00 0.00 95 1022.1
20260831110107 69 0 0.0 0.0 0.00 0.00 0.00 95 1022.0